Lapse_Rate
2.2 2.1 2.5 2.4 2.2 2.3 2.2 1.6 1.3 1.0 0.6 0.7 0.5 0.1 -0.1 -1.0 -1.0 2.7 5.1 5.7 4.7 3.7 2.5 5.6 5.9 5.7 5.1 5.8 5.6 4.9 6.5 6.5 6.5 6.5 6.5 7.0 6.6 6.9 6.7 7.2 7.0 5.1 4.5 3.3 1.6
2.4 2.6 2.5 2.5 2.2 2.3 2.5 1.9 1.7 1.6 1.1 0.8 0.8 0.4 0.2 -0.8 1.6 3.4 5.2 4.5 4.1 4.6 6.1 6.2 6.6 6.3 6.6 6.1 6.2 6.8 6.5 6.5 6.5 6.6 6.5 6.8 6.8 7.0 7.0 7.0 7.0 6.7 2.5 1.8 0.6
2.3 2.8 2.6 2.7 2.6 2.2 2.6 2.3 1.9 1.8 1.6 1.3 1.0 0.6 0.5 0.2 5.3 6.4 4.3 4.3 3.9 4.4 5.4 5.5 5.6 6.2 7.0 6.7 6.8 6.8 6.5 6.5 6.7 7.1 7.1 6.8 6.8 7.1 6.8 6.5 7.0 7.0 5.9 2.6 0.7
2.5 2.6 2.7 2.7 2.8 2.7 2.6 2.6 2.1 2.2 1.9 1.8 1.3 1.0 0.9 4.1 6.5 6.0 4.0 3.7 3.6 3.9 5.9 6.1 6.4 6.6 6.6 6.5 7.1 6.5 6.8 6.9 6.9 6.6 7.0 6.6 7.2 6.8 7.0 7.1 7.2 6.4 5.0 3.2 2.2
2.6 2.4 2.6 2.7 2.9 3.1 3.1 3.1 2.4 2.3 2.4 1.9 1.9 1.8 4.1 5.8 5.7 4.6 5.2 4.6 5.0 5.7 6.1 6.6 6.6 6.6 6.5 6.7 6.8 6.5 6.6 7.0 6.8 6.4 6.8 6.8 6.8 6.7 7.0 7.1 6.9 5.3 3.4 3.6 3.5
2.6 2.4 2.5 2.5 2.7 3.0 3.5 3.6 2.9 2.9 2.8 2.5 2.2 2.9 5.2 6.6 5.2 4.5 4.0 4.8 5.9 5.9 6.4 6.3 6.7 6.7 6.9 6.7 6.6 6.9 6.8 6.8 6.9 7.0 7.0 6.6 6.7 6.8 6.7 6.1 5.7 5.5 5.6 5.0 4.1
2.6 2.4 2.8 2.7 2.8 2.8 3.5 3.8 3.5 3.0 3.4 3.2 3.2 4.0 4.6 5.3 4.6 3.2 2.9 3.6 4.9 5.1 5.9 6.1 6.6 6.9 6.6 6.5 6.8 7.0 6.5 6.5 6.7 6.8 6.6 7.0 6.5 6.5 6.9 6.4 6.1 6.0 6.5 6.2 5.8
3.1 2.5 2.5 2.6 2.8 3.1 3.4 3.9 3.8 3.5 3.3 3.6 4.0 5.0 5.9 4.8 3.0 2.4 3.2 3.8 3.6 4.6 5.1 6.0 6.1 6.5 6.6 6.5 6.9 6.5 6.5 6.5 6.5 6.6 6.6 6.7 6.5 6.5 6.5 6.9 7.1 7.2 6.0 4.4 3.5
3.5 3.2 2.7 2.4 2.7 3.2 3.6 4.0 4.2 3.7 3.8 3.7 4.8 5.8 6.6 5.8 4.8 5.6 4.3 4.6 4.5 3.3 4.6 6.9 7.2 6.5 6.6 6.5 6.5 6.5 6.5 6.5 6.5 6.6 6.5 6.5 6.5 6.5 7.3 6.8 7.0 7.1 6.1 6.0 5.4
3.8 3.5 3.2 2.6 2.8 3.2 3.2 4.0 4.1 3.6 3.9 5.2 6.5 6.8 5.7 6.0 6.5 6.4 4.2 4.9 6.4 4.9 6.0 7.3 6.3 6.5 6.5 6.5 6.5 6.5 6.5 6.5 6.5 6.5 6.5 6.5 6.5 6.5 7.1 7.0 7.0 7.2 7.2 7.0 6.3
4.6 3.8 3.5 3.2 3.3 3.4 3.3 4.5 5.1 4.6 5.0 6.5 5.7 6.2 5.7 6.2 6.6 6.7 6.1 5.8 6.5 6.3 6.5 6.8 6.5 6.5 6.5 6.5 6.5 6.5 6.5 6.5 6.5 6.5 6.5 6.5 6.5 6.5 6.9 7.0 7.0 7.2 7.2 7.4 6.6
4.4 4.4 3.6 3.2 3.6 3.9 5.5 7.1 7.7 6.8 6.7 5.8 7.1 6.1 5.8 6.4 6.7 6.2 7.1 6.6 6.4 6.5 6.5 6.5 6.5 6.5 6.5 6.5 6.5 6.5 6.5 6.5 6.5 6.5 6.5 6.5 6.5 6.5 6.5 6.7 7.0 7.2 7.3 7.2 6.6
4.2 4.4 4.1 3.2 3.5 4.1 6.0 7.1 7.3 7.5 6.6 6.4 5.6 7.0 6.8 6.6 7.0 6.8 7.4 6.3 6.5 6.5 6.5 6.5 6.5 6.5 6.5 6.5 6.5 6.5 6.5 6.5 6.5 6.5 6.5 6.5 6.5 6.5 6.5 7.0 7.2 7.4 7.4 6.7 7.1
5.7 4.4 4.1 3.4 3.3 4.9 5.7 7.4 7.1 7.0 6.5 6.5 6.7 7.0 6.7 7.3 6.6 6.5 7.6 7.1 6.5 6.5 6.5 6.5 6.5 6.5 6.5 6.5 6.5 6.5 6.5 6.5 6.5 6.5 6.5 6.5 6.5 6.5 6.5 6.5 6.5 7.0 7.2 7.2 6.1
6.7 5.2 4.3 3.5 5.1 5.5 6.4 6.8 5.8 5.0 6.5 6.5 6.7 7.3 7.6 6.9 6.8 6.8 7.3 7.2 6.5 6.5 6.5 6.5 6.5 6.5 6.5 6.5 6.5 6.5 6.5 6.5 6.5 6.5 6.5 6.5 6.5 6.5 6.5 6.5 6.5 6.7 7.2 7.1 6.1
7.1 6.2 4.9 4.1 4.2 5.1 6.6 5.9 5.4 6.5 6.5 6.5 6.7 6.5 6.5 6.7 6.7 6.7 7.1 7.1 7.0 6.5 6.5 6.5 6.7 6.5 6.5 6.5 6.5 6.5 6.5 6.5 6.5 6.5 6.5 6.5 6.5 6.5 6.5 6.5 6.5 6.7 7.2 7.1 6.2
7.2 7.0 5.7 5.6 5.6 4.4 5.7 6.1 6.5 6.5 6.5 6.5 6.5 6.5 6.5 6.5 6.5 6.5 6.5 6.5 6.5 6.5 6.5 6.5 6.5 6.5 6.5 6.5 6.5 6.5 6.5 6.5 6.5 6.5 6.5 6.5 6.5 6.5 6.5 6.5 6.5 6.5 7.1 7.0 6.2
7.0 6.7 6.5 5.6 4.2 5.2 6.4 6.5 6.5 6.5 6.5 6.5 6.5 6.5 6.5 6.5 6.5 6.5 6.5 6.5 6.5 6.5 6.5 6.5 6.5 6.5 6.5 6.5 6.5 6.5 6.5 6.5 6.5 6.5 6.5 6.5 6.5 6.5 6.5 6.9 7.1 7.2 7.3 6.9 6.9
7.3 6.4 6.8 6.3 5.1 5.8 6.5 6.5 6.5 6.5 6.5 6.5 6.5 6.5 6.5 6.5 6.5 6.5 6.5 6.5 6.5 6.5 6.5 6.5 6.5 6.5 6.5 6.5 6.5 6.5 6.5 6.5 6.5 6.5 6.5 6.5 6.5 6.5 6.5 6.5 6.7 6.9 7.2 7.3 7.6
6.7 7.1 7.1 6.1 5.6 6.0 6.5 6.5 6.5 6.5 6.5 6.5 6.5 6.5 6.5 6.5 6.5 6.5 6.5 6.5 6.5 6.5 6.5 6.5 6.5 6.5 6.5 6.6 6.5 6.5 6.5 6.5 6.5 6.5 6.5 6.5 6.5 6.5 6.5 6.5 6.5 6.5 6.9 7.3 7.6
6.7 6.8 6.9 6.5 5.8 6.4 6.5 6.5 6.5 6.5 6.4 6.5 6.5 6.5 6.5 6.5 6.5 6.5 6.5 6.5 6.5 6.5 6.5 6.5 6.5 6.5 6.5 6.5 6.5 6.5 6.5 6.5 6.5 6.5 6.5 6.5 6.5 6.5 6.5 6.5 6.5 6.5 7.1 7.3 7.3
7.1 6.5 6.5 5.5 6.5 6.5 6.5 6.5 6.4 6.5 6.4 6.5 6.5 6.5 6.5 6.5 6.5 6.5 6.5 6.5 6.4 6.5 6.5 6.5 6.5 6.5 6.5 6.5 6.5 6.5 6.5 6.5 6.5 6.5 6.5 6.5 6.5 6.5 6.5 6.5 6.7 6.8 7.1 7.2 6.4
6.7 6.4 5.3 6.1 6.5 6.5 6.5 6.5 6.5 6.5 6.5 6.5 6.5 6.5 6.5 6.5 6.5 6.5 6.5 6.5 6.6 6.5 6.5 6.5 6.5 6.5 6.5 6.5 6.5 6.5 6.5 6.5 6.5 6.5 6.5 6.5 6.5 6.5 6.5 6.5 6.9 6.9 7.2 7.2 6.9
6.8 6.5 5.8 5.6 6.5 6.5 6.5 6.5 6.5 6.5 6.5 6.5 6.5 6.5 6.5 6.5 6.5 6.5 6.5 6.5 6.7 6.6 6.3 6.4 6.5 6.5 6.5 6.5 6.5 6.5 6.5 6.5 6.5 6.5 6.5 6.5 6.5 6.5 6.5 6.5 6.6 6.9 7.0 7.1 6.6
6.7 6.5 6.2 6.5 6.5 6.5 6.5 6.5 6.5 6.5 6.5 6.5 6.5 6.5 6.5 6.5 6.5 6.5 6.5 6.5 6.5 6.7 6.5 6.5 6.5 6.5 6.5 6.5 6.5 6.5 6.5 6.5 6.5 6.5 6.5 6.5 6.5 6.5 6.5 6.5 6.7 7.1 7.2 7.3 7.4
6.3 6.4 6.2 6.5 6.5 6.5 6.5 6.5 6.5 6.5 6.5 6.5 6.5 6.5 6.5 6.5 6.5 6.5 6.5 6.5 6.5 6.5 6.5 6.5 6.5 6.5 6.5 6.5 6.5 6.5 6.5 6.5 6.5 6.5 6.5 6.5 6.5 6.5 6.8 6.9 6.8 7.0 7.2 7.2 7.3
6.6 6.0 6.8 6.5 6.5 6.5 6.5 6.5 6.5 6.5 6.5 6.5 6.5 6.5 6.5 6.5 6.6 6.6 6.4 6.4 6.5 6.5 6.5 6.5 6.5 6.5 6.5 6.5 6.5 6.5 6.5 6.5 6.5 6.5 6.5 6.5 6.5 6.5 6.5 6.5 6.8 7.1 7.3 7.3 7.4
Wind_Speed
20 20 19 16 13 11 8 5 4 5 8 13 17 20 20 21 21 1 1 1 2 5 2 0 3 2 3 3 2 3 2 3 4 5 3 1 7 2 6 6 4 1 1 4 6
21 20 19 18 16 14 10 7 5 6 8 11 16 18 22 21 4 5 2 3 1 7 2 2 2 1 3 3 3 4 3 7 5 5 6 1 3 4 4 8 2 2 1 1 6
23 22 20 20 19 17 13 9 7 5 7 11 15 19 22 12 4 3 3 5 1 4 1 1 2 2 4 3 4 4 6 5 4 10 6 3 4 3 3 4 7 7 4 5 6
25 23 22 21 20 18 16 11 7 6 5 10 13 18 23 3 5 3 1 4 2 1 0 1 1 3 3 4 3 4 5 4 2 2 2 4 2 3 8 10 10 9 5 9 12
26 25 24 22 21 20 18 13 9 7 5 6 11 16 5 3 9 2 4 1 3 2 1 2 2 3 3 2 1 4 3 3 3 6 8 7 12 8 9 15 13 13 6 11 13
28 26 25 24 23 21 20 16 10 8 5 4 7 8 2 7 3 3 5 4 2 2 2 3 3 2 1 3 4 1 2 6 6 11 9 11 10 7 4 4 5 5 11 12 14
28 27 26 24 23 22 21 19 14 10 5 3 4 2 2 15 3 3 3 4 5 6 4 3 2 2 3 2 1 2 5 4 8 3 5 4 3 8 2 8 3 5 7 8 11
30 28 28 27 24 23 22 20 17 12 7 2 1 1 7 4 2 6 5 6 8 9 7 4 3 2 3 1 2 2 2 2 1 2 2 2 5 6 3 8 9 8 8 11 13
29 29 29 27 26 24 21 19 16 12 6 4 1 2 10 6 5 8 9 4 4 5 7 3 6 3 3 3 2 1 4 4 3 2 1 2 5 7 9 8 8 7 8 9 10
31 29 29 28 26 24 20 16 12 8 3 3 1 3 7 5 3 2 5 3 3 8 6 4 3 3 2 6 7 5 4 4 4 2 2 9 19 14 11 7 3 6 8 9 11
30 30 29 28 27 26 18 8 5 3 6 9 11 5 4 3 3 3 4 5 4 3 6 6 7 11 21 11 4 3 2 9 2 3 5 12 15 20 11 4 8 8 7 8 9
23 29 30 31 29 32 17 10 12 3 5 18 17 14 7 2 4 4 2 4 5 6 8 4 12 16 7 10 9 5 6 12 8 3 7 8 17 24 18 2 5 9 8 7 7
19 26 30 32 35 19 19 23 6 6 4 8 14 14 12 11 13 18 6 4 6 8 13 11 6 13 10 8 9 9 10 9 11 6 8 11 9 7 6 11 8 7 7 6 7
19 21 28 31 20 16 21 18 7 5 4 8 9 12 13 10 11 18 15 12 7 13 6 10 6 6 8 12 13 14 10 13 13 7 7 2 9 7 8 9 6 5 5 6 7
20 18 25 34 9 15 14 15 10 4 5 5 11 5 11 15 7 12 17 9 23 11 7 8 8 15 18 13 12 8 6 8 7 7 7 10 7 3 10 7 8 6 5 5 6
20 18 18 20 6 15 20 15 6 6 12 5 8 12 14 16 3 3 8 4 4 14 10 11 2 8 10 8 14 6 4 4 2 2 8 12 11 9 7 8 9 6 5 4 4
22 18 12 13 7 20 22 13 7 8 5 9 10 13 10 9 9 5 9 16 11 9 16 18 11 2 4 6 3 13 9 3 4 5 8 3 12 11 6 7 14 13 6 3 4
21 16 14 11 15 26 17 12 8 10 11 2 10 15 12 11 12 9 13 12 11 3 5 14 8 22 11 20 11 14 12 7 8 6 4 3 9 2 7 10 10 7 7 5 3
19 11 11 10 18 20 17 18 10 12 20 10 13 9 9 10 7 10 13 11 15 13 5 9 8 2 2 10 18 9 13 10 5 1 5 6 3 4 7 8 7 7 4 5 7
11 9 15 14 23 18 18 17 15 14 16 11 10 8 14 13 10 15 14 7 7 13 2 5 3 1 3 3 5 13 12 5 1 6 8 8 8 9 13 14 8 4 5 8 9
11 7 9 14 15 16 18 11 10 20 8 27 16 9 8 10 11 10 12 2 3 4 8 5 2 3 2 6 11 8 9 4 8 5 5 6 5 3 14 14 9 2 7 8 10
12 15 8 15 16 15 21 11 14 25 15 15 10 13 13 9 8 9 13 4 6 8 11 5 4 7 8 2 1 1 9 12 7 6 4 4 7 2 14 10 5 2 4 6 7
8 13 3 16 15 13 8 9 19 18 27 12 12 19 5 12 4 12 9 4 9 9 10 8 6 4 3 3 2 6 5 4 3 3 14 8 3 6 6 5 3 5 5 6 9
7 8 7 6 15 16 14 16 10 22 23 20 9 7 9 8 13 9 12 4 5 5 8 7 6 9 10 3 4 10 8 9 10 8 10 14 7 10 11 8 9 11 9 9 9
8 5 7 16 11 18 20 19 18 10 11 16 11 23 20 10 13 11 7 5 3 8 5 6 11 16 2 3 2 4 14 17 14 12 14 13 18 11 9 6 7 7 8 10 11
4 4 2 3 23 19 24 20 26 16 16 26 16 23 22 14 16 12 12 7 6 5 7 2 4 7 12 4 4 2 4 9 10 5 13 11 18 5 4 3 5 8 9 10 12
7 2 4 11 15 14 21 18 27 22 10 22 17 14 19 11 7 11 6 9 6 8 7 6 6 6 7 3 3 11 15 14 7 7 8 13 13 3 3 3 6 9 9 11 12
Wind_Direction
222 220 226 226 228 236 243 252 276 308 328 327 327 329 330 335 324 331 305 282 232 331 312 16 108 60 96 122 124 147 195 213 204 182 237 294 357 309 301 284 272 103 229 325 147
221 223 220 221 220 225 230 252 263 300 319 329 325 329 329 338 319 297 253 210 325 337 29 83 203 145 146 137 152 187 210 215 219 209 263 304 317 321 335 328 340 308 154 80 176
218 222 217 219 219 217 219 241 252 274 313 323 329 334 328 332 315 234 134 125 339 350 84 263 130 166 179 157 185 163 235 206 229 234 273 261 267 198 257 275 277 294 296 183 195
216 216 217 215 216 217 213 220 232 257 293 321 334 335 326 309 295 175 351 294 108 242 44 134 123 146 188 190 158 218 229 198 232 209 298 257 270 259 248 260 271 280 235 189 195
215 213 213 213 214 215 217 211 217 226 272 319 338 338 4 14 252 179 346 52 85 95 47 225 220 156 196 156 235 229 239 208 258 281 264 259 250 252 242 248 276 294 220 207 211
212 211 212 210 209 208 215 206 212 222 254 311 344 335 95 273 253 217 92 336 127 70 208 191 190 198 201 203 192 161 255 292 284 264 252 254 268 181 261 307 274 239 251 244 233
209 208 209 208 208 204 209 206 199 201 224 300 348 76 214 250 214 328 305 224 257 202 199 218 158 158 147 251 203 218 283 299 244 274 237 185 209 215 100 350 323 294 327 326 270
209 205 203 202 203 204 203 202 192 191 180 240 342 107 251 242 259 274 218 260 232 228 204 175 141 148 183 238 22 246 154 254 150 328 346 196 243 233 46 353 324 14 18 64 51
213 207 201 195 195 198 196 191 184 164 164 166 178 170 263 307 251 260 188 215 149 147 171 120 150 159 142 180 278 5 249 202 280 31 164 325 280 250 317 331 329 60 54 67 61
211 209 200 192 189 185 160 145 143 128 170 184 236 286 254 242 212 178 188 170 220 127 94 149 106 153 153 178 231 196 226 203 181 147 288 298 289 287 301 306 21 92 95 80 67
223 206 199 187 182 157 124 123 156 195 222 198 186 219 297 291 276 165 183 156 163 150 159 172 188 206 214 203 214 133 232 273 193 234 286 271 281 290 282 285 141 123 103 85 68
246 213 197 186 173 164 170 196 188 140 210 222 233 224 261 3 315 271 216 176 174 188 125 144 216 225 157 192 216 229 256 270 288 250 214 263 263 274 282 241 140 128 112 96 90
244 230 197 186 167 166 193 198 145 120 272 204 212 221 228 217 234 252 200 183 196 191 187 200 198 203 187 187 201 226 233 248 265 281 265 283 268 241 51 117 106 101 115 109 86
243 234 202 182 163 176 197 178 157 105 275 234 202 225 194 214 246 221 200 196 209 218 170 235 207 176 192 218 207 244 209 239 261 290 286 301 290 247 178 152 131 126 114 100 78
248 238 212 167 149 183 164 160 131 68 228 208 183 150 171 185 121 215 194 199 219 189 176 211 186 209 227 223 187 239 174 203 229 237 292 233 261 200 152 177 161 148 130 97 65
246 231 233 189 177 173 148 139 103 122 224 226 141 168 147 198 245 125 166 135 205 225 234 249 169 190 209 195 186 136 120 69 73 191 252 227 225 256 198 189 149 162 152 94 49
244 237 218 203 185 152 144 149 174 190 178 178 170 168 158 162 203 179 170 179 172 173 215 220 215 211 172 132 118 178 154 200 222 199 257 166 219 253 142 148 153 152 130 84 35
237 231 223 239 156 153 160 169 200 179 196 151 156 164 177 149 205 169 162 181 207 175 166 201 212 207 192 212 193 186 197 206 241 219 274 159 231 264 117 107 102 106 110 107 33
229 234 229 219 188 167 170 190 199 171 184 162 144 153 202 190 149 166 181 201 194 195 178 175 224 55 87 211 192 188 220 207 254 107 292 218 200 149 145 136 122 112 78 7 344
218 229 232 201 193 179 189 183 191 176 167 169 163 170 188 178 164 177 171 185 191 191 184 169 135 15 133 124 234 211 161 180 130 212 238 231 243 234 181 175 158 117 359 342 344
206 223 216 190 205 197 199 183 202 190 163 183 204 158 193 184 181 181 180 127 158 132 148 123 36 149 191 199 175 173 192 161 172 212 234 273 243 323 183 164 151 68 344 333 332
200 215 178 161 213 206 195 168 193 186 199 185 207 204 161 169 165 185 188 164 141 142 160 176 151 217 212 155 291 276 206 192 192 189 236 290 249 83 141 141 144 7 318 291 288
203 216 240 174 214 199 158 174 181 168 195 194 193 204 139 182 174 222 185 159 158 158 152 170 169 164 198 192 197 213 187 176 187 94 212 215 218 139 136 174 203 334 322 311 316
189 202 229 235 219 196 179 176 167 187 186 198 189 136 151 169 199 191 183 153 169 155 139 124 165 210 215 154 153 192 187 187 195 216 214 233 250 198 230 271 333 343 337 324 310
201 222 200 205 207 182 182 158 163 151 184 172 191 198 178 180 196 212 156 135 109 152 125 143 210 208 171 121 135 193 196 188 200 216 212 236 238 225 223 290 306 300 300 311 317
192 221 262 214 204 202 186 181 177 167 158 186 194 191 183 182 192 180 150 161 166 172 164 186 150 173 180 110 59 252 207 197 209 225 256 247 254 195 231 267 285 296 309 314 310
195 268 312 179 182 192 188 165 191 170 201 192 178 162 189 189 104 114 107 121 114 154 152 144 133 170 200 132 17 275 216 207 199 207 208 231 255 255 216 244 292 297 296 296 301